TimeEST,TemperatureF,Dew PointF,Humidity,Sea Level PressureIn,VisibilityMPH,Wind Direction,Wind SpeedMPH,Gust SpeedMPH,PrecipitationIn,Events,Conditions,WindDirDegrees,DateUTC
12:52 AM,45.0,39.9,82,29.73,10.0,South,20.7,34.5,0.04,Rain,Light Rain,190,2013-02-19 05:52:00
2:52 AM,45.0,39.9,82,29.68,9.0,SSW,17.3,28.8,0.00,Rain,Light Rain,200,2013-02-19 07:52:00
3:52 AM,44.1,41.0,89,29.67,4.0,SSW,15.0,34.5,0.03,Rain,Light Rain,210,2013-02-19 08:52:00
4:52 AM,39.0,37.0,93,29.72,7.0,West,23.0,29.9,0.04,Rain,Light Rain,280,2013-02-19 09:52:00
5:25 AM,33.8,33.8,100,29.75,1.5,West,15.0,31.1,0.04,Snow,Light Snow,260,2013-02-19 10:25:00
5:52 AM,34.0,33.1,96,29.76,9.0,West,11.5,-,0.06,,Overcast,260,2013-02-19 10:52:00
6:11 AM,35.6,33.8,93,29.77,10.0,WSW,10.4,-,N/A,,Overcast,250,2013-02-19 11:11:00
6:36 AM,35.6,32.0,87,29.78,10.0,West,18.4,26.5,0.00,,Overcast,260,2013-02-19 11:36:00
6:52 AM,33.1,30.9,92,29.80,8.0,WSW,13.8,29.9,0.00,Rain,Light Rain,240,2013-02-19 11:52:00
7:17 AM,32.0,28.4,87,29.81,10.0,WSW,13.8,23.0,0.00,,Overcast,250,2013-02-19 12:17:00
7:52 AM,32.0,27.0,82,29.83,10.0,WSW,10.4,-,0.00,,Overcast,250,2013-02-19 12:52:00
8:52 AM,32.0,25.0,75,29.86,10.0,West,13.8,21.9,N/A,,Overcast,260,2013-02-19 13:52:00
9:31 AM,32.0,24.8,75,29.86,10.0,WSW,13.8,24.2,N/A,,Overcast,250,2013-02-19 14:31:00
9:52 AM,32.0,21.9,66,29.87,10.0,WSW,15.0,29.9,N/A,,Overcast,250,2013-02-19 14:52:00
10:41 AM,32.0,23.0,69,29.88,10.0,WSW,13.8,24.2,N/A,,Overcast,250,2013-02-19 15:41:00
10:52 AM,32.0,23.0,69,29.89,10.0,WSW,10.4,23.0,N/A,,Overcast,250,2013-02-19 15:52:00
11:36 AM,32.0,21.2,64,29.89,10.0,West,21.9,32.2,N/A,,Overcast,270,2013-02-19 16:36:00
11:52 AM,32.0,21.0,64,29.90,10.0,West,23.0,31.1,N/A,,Overcast,260,2013-02-19 16:52:00
1:52 PM,30.9,21.0,67,29.93,10.0,West,23.0,34.5,N/A,,Overcast,260,2013-02-19 18:52:00
2:52 PM,32.0,19.0,59,29.93,10.0,West,28.8,38.0,N/A,,Overcast,260,2013-02-19 19:52:00
3:52 PM,30.0,17.1,59,29.96,10.0,West,25.3,34.5,N/A,,Overcast,260,2013-02-19 20:52:00
4:52 PM,30.0,17.1,59,30.00,10.0,West,25.3,34.5,N/A,,Overcast,270,2013-02-19 21:52:00
5:52 PM,28.9,18.0,64,30.04,9.0,West,13.8,23.0,0.00,Snow,Light Snow,260,2013-02-19 22:52:00
7:52 PM,27.0,14.0,58,30.10,10.0,West,18.4,35.7,0.00,,Overcast,280,2013-02-20 00:52:00
8:52 PM,26.1,15.1,63,30.11,9.0,West,19.6,28.8,0.00,Snow,Light Snow,280,2013-02-20 01:52:00
9:52 PM,26.1,15.1,63,30.12,9.0,West,18.4,-,0.00,Snow,Light Snow,280,2013-02-20 02:52:00
10:52 PM,25.0,15.1,66,30.13,9.0,West,12.7,-,0.00,Snow,Light Snow,280,2013-02-20 03:52:00
11:52 PM,24.1,15.1,69,30.14,5.0,West,21.9,28.8,0.00,Snow,Light Snow,280,2013-02-20 04:52:00